QPF
0.00 0.01 0.01 0.02 0.01 0.00 0.00 0.00 0.00 0.00 0.00 0.00 0.00 0.00 0.00 0.00 0.00 0.00 0.00 0.00 0.00 0.00 0.00 0.01 0.01 0.01 0.01 0.00 0.00 0.00 0.00 0.00 0.00 0.00 0.00 0.00 0.00 0.00 0.00 0.00 0.00 0.00 0.01 0.01 0.01 0.01 0.01 0.01 0.01
0.00 0.01 0.01 0.02 0.00 0.00 0.00 0.00 0.00 0.00 0.00 0.00 0.00 0.00 0.00 0.00 0.00 0.00 0.00 0.00 0.00 0.00 0.00 0.00 0.01 0.01 0.00 0.00 0.00 0.00 0.00 0.00 0.00 0.00 0.00 0.00 0.00 0.00 0.00 0.00 0.00 0.00 0.00 0.00 0.01 0.01 0.01 0.01 0.02
0.01 0.01 0.01 0.01 0.00 0.00 0.00 0.00 0.00 0.00 0.00 0.00 0.00 0.00 0.00 0.00 0.00 0.00 0.00 0.00 0.00 0.00 0.00 0.00 0.01 0.01 0.00 0.01 0.01 0.00 0.00 0.00 0.00 0.00 0.00 0.00 0.00 0.00 0.00 0.00 0.00 0.00 0.00 0.00 0.01 0.01 0.01 0.01 0.01
0.01 0.01 0.01 0.00 0.00 0.00 0.00 0.00 0.00 0.00 0.00 0.00 0.00 0.00 0.00 0.00 0.00 0.00 0.00 0.00 0.00 0.00 0.00 0.00 0.00 0.00 0.00 0.00 0.00 0.00 0.00 0.00 0.00 0.00 0.00 0.00 0.00 0.00 0.00 0.00 0.00 0.00 0.00 0.00 0.00 0.01 0.01 0.01 0.01
0.00 0.01 0.01 0.01 0.01 0.00 0.00 0.00 0.00 0.00 0.00 0.00 0.00 0.00 0.00 0.00 0.00 0.00 0.00 0.00 0.00 0.00 0.00 0.00 0.00 0.00 0.00 0.00 0.00 0.00 0.00 0.00 0.00 0.00 0.00 0.00 0.00 0.00 0.00 0.00 0.00 0.00 0.00 0.00 0.00 0.00 0.00 0.01 0.01
0.00 0.00 0.00 0.00 0.01 0.00 0.00 0.00 0.00 0.00 0.00 0.00 0.00 0.00 0.00 0.00 0.00 0.00 0.00 0.00 0.00 0.00 0.00 0.00 0.00 0.00 0.00 0.00 0.00 0.01 0.01 0.00 0.00 0.00 0.00 0.00 0.00 0.00 0.00 0.00 0.00 0.00 0.00 0.00 0.00 0.00 0.00 0.01 0.01
0.00 0.00 0.00 0.00 0.00 0.00 0.00 0.00 0.00 0.00 0.00 0.00 0.00 0.00 0.00 0.00 0.00 0.00 0.00 0.00 0.00 0.00 0.00 0.00 0.00 0.00 0.00 0.00 0.00 0.01 0.01 0.00 0.00 0.00 0.00 0.00 0.00 0.00 0.00 0.00 0.00 0.00 0.00 0.00 0.00 0.00 0.01 0.01 0.01
0.00 0.00 0.01 0.01 0.01 0.01 0.00 0.00 0.00 0.00 0.00 0.00 0.00 0.00 0.00 0.00 0.00 0.00 0.00 0.00 0.00 0.00 0.00 0.00 0.00 0.00 0.00 0.00 0.00 0.01 0.01 0.01 0.00 0.00 0.00 0.00 0.00 0.00 0.00 0.00 0.00 0.00 0.00 0.00 0.00 0.00 0.00 0.01 0.01
0.00 0.01 0.02 0.02 0.01 0.01 0.01 0.00 0.00 0.00 0.00 0.00 0.00 0.00 0.00 0.00 0.00 0.00 0.00 0.00 0.00 0.00 0.00 0.00 0.00 0.00 0.00 0.00 0.00 0.01 0.01 0.01 0.00 0.00 0.00 0.00 0.00 0.00 0.00 0.00 0.00 0.00 0.00 0.00 0.00 0.00 0.00 0.00 0.01
0.00 0.01 0.01 0.01 0.01 0.01 0.01 0.01 0.01 0.01 0.01 0.00 0.00 0.00 0.00 0.00 0.01 0.01 0.01 0.01 0.00 0.00 0.00 0.00 0.00 0.00 0.00 0.00 0.00 0.00 0.00 0.00 0.00 0.00 0.00 0.00 0.00 0.00 0.00 0.00 0.00 0.00 0.00 0.00 0.00 0.00 0.00 0.00 0.00
0.01 0.01 0.01 0.01 0.01 0.01 0.01 0.02 0.02 0.02 0.01 0.01 0.01 0.01 0.01 0.02 0.04 0.06 0.06 0.05 0.04 0.03 0.01 0.01 0.00 0.00 0.00 0.00 0.00 0.00 0.00 0.00 0.00 0.00 0.00 0.00 0.00 0.00 0.00 0.00 0.00 0.00 0.00 0.00 0.00 0.00 0.00 0.00 0.00
0.01 0.00 0.01 0.01 0.01 0.01 0.02 0.02 0.03 0.02 0.01 0.02 0.02 0.02 0.02 0.03 0.06 0.08 0.11 0.13 0.13 0.12 0.08 0.05 0.03 0.01 0.00 0.01 0.01 0.01 0.00 0.00 0.00 0.00 0.00 0.00 0.00 0.00 0.00 0.00 0.00 0.00 0.00 0.00 0.00 0.00 0.00 0.00 0.00
0.00 0.00 0.00 0.01 0.01 0.02 0.02 0.03 0.02 0.02 0.03 0.03 0.05 0.07 0.08 0.09 0.08 0.09 0.10 0.11 0.15 0.20 0.23 0.19 0.12 0.06 0.03 0.02 0.02 0.01 0.01 0.01 0.01 0.01 0.00 0.00 0.00 0.00 0.00 0.00 0.00 0.00 0.00 0.00 0.00 0.00 0.00 0.00 0.00
0.00 0.01 0.01 0.02 0.02 0.02 0.03 0.03 0.03 0.03 0.05 0.07 0.10 0.13 0.16 0.19 0.18 0.17 0.17 0.18 0.18 0.20 0.25 0.28 0.22 0.17 0.12 0.08 0.07 0.06 0.05 0.03 0.02 0.01 0.01 0.00 0.00 0.00 0.00 0.01 0.00 0.00 0.00 0.00 0.00 0.00 0.00 0.00 0.00
0.00 0.00 0.01 0.01 0.02 0.02 0.03 0.04 0.04 0.04 0.05 0.09 0.13 0.16 0.19 0.21 0.24 0.25 0.25 0.24 0.23 0.23 0.27 0.30 0.30 0.29 0.25 0.22 0.18 0.15 0.15 0.11 0.07 0.05 0.02 0.01 0.01 0.00 0.01 0.02 0.01 0.00 0.00 0.00 0.00 0.00 0.00 0.00 0.00
0.00 0.00 0.00 0.00 0.01 0.02 0.03 0.03 0.03 0.04 0.06 0.07 0.10 0.14 0.17 0.17 0.18 0.20 0.21 0.21 0.21 0.21 0.23 0.27 0.29 0.31 0.34 0.34 0.34 0.32 0.27 0.20 0.13 0.10 0.06 0.04 0.03 0.03 0.04 0.04 0.02 0.02 0.01 0.00 0.00 0.00 0.00 0.00 0.00
0.00 0.00 0.00 0.00 0.00 0.01 0.02 0.02 0.02 0.03 0.04 0.05 0.06 0.08 0.10 0.12 0.12 0.13 0.14 0.16 0.17 0.16 0.18 0.20 0.22 0.24 0.33 0.39 0.42 0.43 0.39 0.29 0.21 0.15 0.11 0.08 0.07 0.07 0.07 0.07 0.06 0.04 0.03 0.02 0.01 0.00 0.00 0.00 0.00
0.00 0.00 0.00 0.00 0.00 0.00 0.01 0.01 0.01 0.01 0.02 0.03 0.03 0.04 0.06 0.08 0.08 0.08 0.07 0.08 0.09 0.10 0.11 0.13 0.17 0.19 0.25 0.34 0.40 0.38 0.37 0.33 0.29 0.23 0.20 0.17 0.13 0.12 0.11 0.11 0.10 0.08 0.05 0.02 0.01 0.01 0.00 0.00 0.00
0.00 0.00 0.00 0.00 0.00 0.00 0.00 0.01 0.01 0.01 0.01 0.01 0.01 0.02 0.03 0.04 0.04 0.04 0.04 0.04 0.05 0.05 0.06 0.08 0.11 0.15 0.17 0.21 0.27 0.28 0.28 0.32 0.38 0.41 0.36 0.26 0.20 0.18 0.17 0.15 0.14 0.11 0.06 0.04 0.03 0.02 0.01 0.01 0.00
0.00 0.00 0.00 0.00 0.00 0.00 0.00 0.01 0.01 0.00 0.00 0.01 0.01 0.01 0.02 0.03 0.02 0.02 0.02 0.02 0.03 0.02 0.02 0.03 0.04 0.06 0.09 0.12 0.16 0.20 0.24 0.28 0.35 0.44 0.40 0.30 0.25 0.22 0.20 0.18 0.18 0.16 0.12 0.08 0.05 0.04 0.03 0.01 0.01
0.00 0.00 0.00 0.00 0.00 0.00 0.01 0.01 0.00 0.01 0.01 0.01 0.01 0.02 0.02 0.03 0.03 0.02 0.02 0.02 0.02 0.01 0.02 0.01 0.02 0.02 0.04 0.05 0.07 0.11 0.17 0.20 0.21 0.23 0.29 0.32 0.29 0.26 0.22 0.20 0.22 0.23 0.20 0.15 0.11 0.07 0.05 0.04 0.05
0.00 0.00 0.00 0.00 0.00 0.00 0.01 0.01 0.01 0.01 0.02 0.02 0.02 0.02 0.03 0.03 0.02 0.02 0.01 0.02 0.01 0.01 0.00 0.00 0.00 0.01 0.01 0.02 0.03 0.05 0.07 0.09 0.12 0.20 0.28 0.31 0.26 0.25 0.24 0.24 0.26 0.26 0.24 0.20 0.16 0.12 0.10 0.10 0.10
0.00 0.00 0.00 0.00 0.00 0.00 0.00 0.01 0.01 0.01 0.01 0.02 0.03 0.03 0.02 0.02 0.02 0.02 0.01 0.01 0.01 0.01 0.00 0.00 0.00 0.00 0.01 0.01 0.01 0.02 0.04 0.05 0.08 0.16 0.23 0.23 0.25 0.28 0.30 0.31 0.34 0.32 0.30 0.27 0.24 0.21 0.18 0.17 0.15
0.00 0.00 0.00 0.00 0.00 0.00 0.00 0.01 0.01 0.01 0.02 0.02 0.02 0.02 0.02 0.03 0.03 0.03 0.02 0.02 0.01 0.01 0.01 0.01 0.01 0.01 0.01 0.01 0.01 0.01 0.01 0.02 0.04 0.06 0.10 0.15 0.20 0.27 0.31 0.36 0.37 0.36 0.34 0.32 0.30 0.28 0.24 0.23 0.20
0.00 0.00 0.00 0.00 0.00 0.00 0.00 0.00 0.01 0.02 0.02 0.02 0.03 0.02 0.02 0.03 0.03 0.03 0.03 0.02 0.01 0.01 0.01 0.02 0.02 0.02 0.02 0.01 0.01 0.01 0.01 0.01 0.02 0.03 0.06 0.09 0.13 0.18 0.25 0.33 0.38 0.42 0.42 0.40 0.37 0.34 0.29 0.25 0.20
0.00 0.00 0.00 0.00 0.00 0.00 0.00 0.00 0.01 0.01 0.01 0.02 0.02 0.02 0.02 0.05 0.06 0.06 0.06 0.04 0.03 0.02 0.03 0.03 0.03 0.03 0.02 0.02 0.02 0.01 0.01 0.01 0.02 0.03 0.05 0.08 0.10 0.14 0.20 0.27 0.33 0.37 0.40 0.42 0.39 0.34 0.29 0.24 0.20
0.00 0.00 0.00 0.00 0.00 0.00 0.01 0.01 0.01 0.01 0.01 0.02 0.02 0.03 0.04 0.06 0.08 0.10 0.10 0.09 0.06 0.05 0.05 0.04 0.04 0.04 0.04 0.03 0.02 0.01 0.01 0.02 0.02 0.03 0.04 0.06 0.08 0.10 0.14 0.17 0.21 0.29 0.33 0.33 0.32 0.32 0.29 0.24 0.19
0.00 0.00 0.00 0.00 0.00 0.00 0.01 0.03 0.02 0.01 0.01 0.03 0.04 0.05 0.05 0.05 0.07 0.11 0.14 0.19 0.15 0.11 0.10 0.09 0.07 0.06 0.05 0.03 0.03 0.02 0.02 0.03 0.03 0.04 0.04 0.06 0.07 0.09 0.12 0.16 0.17 0.17 0.20 0.20 0.20 0.18 0.17 0.16 0.14
0.00 0.00 0.00 0.00 0.00 0.01 0.01 0.02 0.01 0.02 0.03 0.04 0.04 0.05 0.07 0.06 0.06 0.08 0.10 0.16 0.22 0.20 0.17 0.15 0.10 0.06 0.05 0.04 0.03 0.03 0.04 0.03 0.04 0.04 0.03 0.04 0.06 0.08 0.11 0.13 0.15 0.17 0.17 0.17 0.17 0.15 0.13 0.11 0.10
0.00 0.00 0.00 0.00 0.00 0.00 0.00 0.01 0.01 0.01 0.01 0.03 0.03 0.04 0.05 0.06 0.07 0.06 0.07 0.09 0.12 0.15 0.14 0.12 0.11 0.10 0.08 0.07 0.05 0.04 0.04 0.03 0.03 0.04 0.03 0.04 0.04 0.05 0.07 0.10 0.12 0.12 0.12 0.13 0.15 0.15 0.14 0.11 0.09
MSLP
1008.19 1009.41 1010.84 1012.28 1013.54 1014.48 1015.03 1015.19 1015.04 1014.72 1014.39 1014.15 1014.06 1014.12 1014.28 1014.43 1014.50 1014.41 1014.16 1013.79 1013.39 1013.05 1012.84 1012.81 1012.97 1013.27 1013.63 1013.98 1014.26 1014.44 1014.54 1014.59 1014.65 1014.75 1014.93 1015.17 1015.46 1015.73 1015.96 1016.11 1016.17 1016.17 1016.12 1016.08 1016.07 1016.10 1016.17 1016.27 1016.35
1008.56 1010.01 1011.60 1013.12 1014.36 1015.17 1015.51 1015.42 1015.00 1014.43 1013.88 1013.48 1013.30 1013.32 1013.49 1013.69 1013.83 1013.83 1013.69 1013.43 1013.13 1012.88 1012.76 1012.80 1013.00 1013.32 1013.70 1014.05 1014.34 1014.54 1014.66 1014.74 1014.82 1014.95 1015.14 1015.38 1015.63 1015.87 1016.04 1016.13 1016.15 1016.11 1016.06 1016.04 1016.05 1016.11 1016.22 1016.33 1016.42
1009.15 1010.76 1012.43 1013.93 1015.06 1015.70 1015.82 1015.48 1014.84 1014.08 1013.38 1012.89 1012.66 1012.68 1012.87 1013.12 1013.31 1013.39 1013.32 1013.14 1012.93 1012.76 1012.70 1012.79 1013.04 1013.38 1013.77 1014.12 1014.41 1014.62 1014.76 1014.86 1014.96 1015.11 1015.30 1015.52 1015.73 1015.92 1016.04 1016.08 1016.06 1016.02 1015.97 1015.97 1016.02 1016.13 1016.26 1016.40 1016.51
1009.92 1011.59 1013.24 1014.63 1015.58 1016.01 1015.91 1015.37 1014.57 1013.69 1012.95 1012.44 1012.22 1012.27 1012.50 1012.78 1013.02 1013.13 1013.11 1012.98 1012.82 1012.70 1012.70 1012.83 1013.10 1013.46 1013.85 1014.20 1014.48 1014.69 1014.83 1014.93 1015.05 1015.20 1015.38 1015.58 1015.77 1015.92 1016.00 1016.02 1015.99 1015.95 1015.93 1015.96 1016.05 1016.20 1016.37 1016.53 1016.65
1010.79 1012.42 1013.94 1015.14 1015.88 1016.08 1015.78 1015.10 1014.22 1013.33 1012.61 1012.16 1012.02 1012.13 1012.40 1012.71 1012.96 1013.08 1013.06 1012.96 1012.82 1012.74 1012.77 1012.93 1013.21 1013.57 1013.94 1014.28 1014.54 1014.73 1014.86 1014.97 1015.08 1015.23 1015.41 1015.60 1015.78 1015.91 1015.98 1016.00 1015.98 1015.96 1015.98 1016.05 1016.19 1016.37 1016.56 1016.73 1016.86
1011.66 1013.15 1014.46 1015.42 1015.91 1015.90 1015.46 1014.71 1013.84 1013.02 1012.41 1012.08 1012.04 1012.23 1012.54 1012.86 1013.10 1013.20 1013.17 1013.06 1012.93 1012.87 1012.91 1013.08 1013.37 1013.71 1014.06 1014.36 1014.59 1014.76 1014.87 1014.97 1015.08 1015.23 1015.41 1015.61 1015.79 1015.92 1016.01 1016.04 1016.06 1016.08 1016.14 1016.25 1016.42 1016.62 1016.82 1016.99 1017.10
1012.41 1013.70 1014.76 1015.45 1015.71 1015.54 1015.01 1014.27 1013.48 1012.81 1012.36 1012.19 1012.27 1012.53 1012.87 1013.17 1013.37 1013.43 1013.37 1013.24 1013.11 1013.05 1013.10 1013.28 1013.55 1013.86 1014.17 1014.44 1014.63 1014.76 1014.86 1014.95 1015.07 1015.22 1015.42 1015.62 1015.82 1015.97 1016.09 1016.16 1016.21 1016.28 1016.38 1016.52 1016.71 1016.91 1017.10 1017.25 1017.34
1012.97 1014.03 1014.83 1015.28 1015.35 1015.07 1014.54 1013.88 1013.24 1012.75 1012.48 1012.47 1012.65 1012.96 1013.29 1013.56 1013.71 1013.71 1013.61 1013.45 1013.32 1013.26 1013.31 1013.48 1013.72 1014.01 1014.27 1014.49 1014.65 1014.75 1014.83 1014.92 1015.05 1015.22 1015.44 1015.66 1015.88 1016.06 1016.20 1016.31 1016.40 1016.50 1016.62 1016.78 1016.97 1017.17 1017.34 1017.46 1017.52
1013.34 1014.17 1014.74 1015.00 1014.95 1014.64 1014.16 1013.64 1013.18 1012.88 1012.80 1012.90 1013.15 1013.47 1013.76 1013.97 1014.04 1013.98 1013.84 1013.66 1013.52 1013.47 1013.52 1013.67 1013.88 1014.12 1014.34 1014.51 1014.63 1014.71 1014.79 1014.89 1015.04 1015.23 1015.47 1015.72 1015.95 1016.16 1016.32 1016.45 1016.56 1016.68 1016.81 1016.98 1017.16 1017.33 1017.47 1017.56 1017.59
1013.54 1014.18 1014.58 1014.72 1014.63 1014.36 1014.00 1013.65 1013.38 1013.27 1013.32 1013.50 1013.77 1014.04 1014.26 1014.37 1014.36 1014.24 1014.06 1013.87 1013.73 1013.67 1013.71 1013.84 1014.01 1014.19 1014.35 1014.47 1014.56 1014.63 1014.71 1014.83 1015.01 1015.23 1015.49 1015.76 1016.01 1016.22 1016.39 1016.53 1016.65 1016.77 1016.91 1017.06 1017.22 1017.37 1017.49 1017.56 1017.57
1013.65 1014.16 1014.46 1014.56 1014.50 1014.34 1014.14 1013.98 1013.90 1013.93 1014.07 1014.28 1014.50 1014.69 1014.80 1014.80 1014.69 1014.50 1014.29 1014.09 1013.95 1013.89 1013.91 1013.99 1014.10 1014.21 1014.30 1014.37 1014.43 1014.49 1014.59 1014.73 1014.94 1015.19 1015.48 1015.76 1016.01 1016.22 1016.39 1016.52 1016.64 1016.75 1016.88 1017.02 1017.17 1017.30 1017.41 1017.47 1017.48
1013.80 1014.24 1014.51 1014.64 1014.66 1014.65 1014.63 1014.66 1014.74 1014.88 1015.06 1015.24 1015.37 1015.43 1015.40 1015.27 1015.07 1014.83 1014.58 1014.38 1014.23 1014.15 1014.12 1014.14 1014.17 1014.20 1014.22 1014.22 1014.24 1014.29 1014.40 1014.57 1014.81 1015.09 1015.39 1015.67 1015.93 1016.13 1016.29 1016.42 1016.53 1016.64 1016.77 1016.90 1017.04 1017.17 1017.28 1017.34 1017.37
1014.09 1014.50 1014.79 1014.99 1015.15 1015.30 1015.47 1015.66 1015.88 1016.08 1016.25 1016.36 1016.37 1016.29 1016.11 1015.86 1015.56 1015.26 1014.99 1014.77 1014.60 1014.48 1014.40 1014.33 1014.26 1014.19 1014.11 1014.04 1014.02 1014.05 1014.16 1014.34 1014.59 1014.89 1015.19 1015.48 1015.74 1015.94 1016.10 1016.23 1016.35 1016.47 1016.61 1016.75 1016.90 1017.04 1017.16 1017.24 1017.29
1014.61 1015.02 1015.35 1015.64 1015.94 1016.25 1016.59 1016.92 1017.23 1017.46 1017.59 1017.60 1017.48 1017.25 1016.93 1016.57 1016.19 1015.84 1015.54 1015.29 1015.08 1014.91 1014.75 1014.58 1014.39 1014.20 1014.02 1013.87 1013.78 1013.78 1013.87 1014.05 1014.30 1014.59 1014.89 1015.18 1015.43 1015.64 1015.82 1015.97 1016.12 1016.28 1016.44 1016.62 1016.80 1016.96 1017.10 1017.21 1017.28
1015.39 1015.79 1016.16 1016.53 1016.95 1017.40 1017.87 1018.31 1018.67 1018.90 1018.98 1018.89 1018.64 1018.28 1017.84 1017.38 1016.94 1016.55 1016.21 1015.92 1015.67 1015.43 1015.17 1014.89 1014.58 1014.27 1013.98 1013.74 1013.59 1013.53 1013.58 1013.72 1013.94 1014.21 1014.49 1014.76 1015.01 1015.24 1015.45 1015.65 1015.86 1016.08 1016.31 1016.53 1016.75 1016.95 1017.12 1017.25 1017.35
1016.40 1016.78 1017.16 1017.59 1018.08 1018.63 1019.19 1019.69 1020.08 1020.29 1020.31 1020.12 1019.77 1019.31 1018.78 1018.24 1017.75 1017.32 1016.95 1016.62 1016.31 1015.99 1015.64 1015.25 1014.84 1014.42 1014.03 1013.70 1013.47 1013.34 1013.32 1013.41 1013.56 1013.77 1014.00 1014.25 1014.50 1014.75 1015.01 1015.28 1015.57 1015.87 1016.18 1016.47 1016.75 1016.98 1017.18 1017.34 1017.47
1017.56 1017.88 1018.25 1018.70 1019.23 1019.83 1020.44 1020.96 1021.35 1021.53 1021.48 1021.23 1020.80 1020.25 1019.66 1019.08 1018.55 1018.08 1017.68 1017.31 1016.94 1016.55 1016.11 1015.64 1015.13 1014.63 1014.16 1013.76 1013.45 1013.25 1013.15 1013.13 1013.20 1013.32 1013.48 1013.68 1013.92 1014.19 1014.50 1014.85 1015.24 1015.64 1016.03 1016.40 1016.73 1017.01 1017.24 1017.42 1017.57
1018.75 1019.01 1019.33 1019.77 1020.31 1020.92 1021.53 1022.05 1022.41 1022.55 1022.45 1022.14 1021.65 1021.05 1020.42 1019.80 1019.24 1018.75 1018.31 1017.89 1017.47 1017.02 1016.52 1015.99 1015.43 1014.88 1014.36 1013.91 1013.54 1013.25 1013.06 1012.94 1012.88 1012.89 1012.96 1013.09 1013.29 1013.57 1013.93 1014.36 1014.84 1015.33 1015.81 1016.26 1016.65 1016.97 1017.23 1017.44 1017.61
1019.86 1020.04 1020.32 1020.73 1021.26 1021.86 1022.44 1022.94 1023.26 1023.35 1023.20 1022.83 1022.30 1021.67 1021.01 1020.36 1019.78 1019.25 1018.77 1018.31 1017.85 1017.35 1016.82 1016.26 1015.68 1015.12 1014.59 1014.11 1013.70 1013.35 1013.05 1012.81 1012.63 1012.51 1012.46 1012.51 1012.66 1012.94 1013.33 1013.81 1014.36 1014.94 1015.50 1016.00 1016.44 1016.81 1017.10 1017.34 1017.54
1020.79 1020.93 1021.18 1021.57 1022.08 1022.65 1023.20 1023.65 1023.92 1023.95 1023.75 1023.34 1022.77 1022.11 1021.42 1020.75 1020.13 1019.57 1019.05 1018.55 1018.04 1017.51 1016.96 1016.40 1015.84 1015.30 1014.79 1014.32 1013.89 1013.49 1013.11 1012.76 1012.45 1012.19 1012.02 1011.97 1012.06 1012.31 1012.70 1013.22 1013.82 1014.45 1015.06 1015.62 1016.10 1016.50 1016.82 1017.10 1017.34
1021.51 1021.63 1021.88 1022.28 1022.78 1023.34 1023.85 1024.25 1024.45 1024.42 1024.16 1023.70 1023.09 1022.40 1021.68 1020.98 1020.33 1019.72 1019.15 1018.60 1018.05 1017.50 1016.95 1016.40 1015.88 1015.38 1014.92 1014.48 1014.05 1013.62 1013.19 1012.75 1012.32 1011.95 1011.67 1011.52 1011.54 1011.74 1012.12 1012.64 1013.25 1013.90 1014.54 1015.12 1015.63 1016.05 1016.41 1016.72 1017.02
1022.02 1022.18 1022.48 1022.91 1023.44 1023.98 1024.46 1024.80 1024.94 1024.84 1024.51 1023.99 1023.34 1022.61 1021.85 1021.11 1020.41 1019.75 1019.12 1018.52 1017.93 1017.35 1016.79 1016.26 1015.78 1015.33 1014.92 1014.53 1014.13 1013.70 1013.24 1012.74 1012.25 1011.79 1011.42 1011.19 1011.14 1011.28 1011.62 1012.11 1012.71 1013.35 1013.98 1014.57 1015.08 1015.52 1015.90 1016.25 1016.59
1022.38 1022.63 1023.01 1023.52 1024.08 1024.63 1025.08 1025.36 1025.42 1025.24 1024.84 1024.26 1023.55 1022.78 1021.98 1021.20 1020.45 1019.74 1019.05 1018.39 1017.74 1017.13 1016.55 1016.03 1015.57 1015.17 1014.80 1014.46 1014.09 1013.69 1013.23 1012.72 1012.20 1011.69 1011.28 1010.99 1010.88 1010.98 1011.26 1011.70 1012.26 1012.86 1013.46 1014.02 1014.52 1014.97 1015.36 1015.74 1016.12
1022.68 1023.05 1023.55 1024.14 1024.75 1025.30 1025.72 1025.94 1025.92 1025.65 1025.16 1024.52 1023.76 1022.94 1022.11 1021.29 1020.50 1019.74 1018.99 1018.27 1017.57 1016.91 1016.30 1015.77 1015.31 1014.93 1014.59 1014.28 1013.96 1013.60 1013.17 1012.69 1012.17 1011.68 1011.25 1010.94 1010.80 1010.85 1011.07 1011.46 1011.95 1012.49 1013.04 1013.56 1014.03 1014.46 1014.86 1015.25 1015.65
1023.01 1023.50 1024.11 1024.78 1025.44 1025.98 1026.36 1026.50 1026.39 1026.03 1025.46 1024.75 1023.94 1023.09 1022.24 1021.40 1020.59 1019.79 1019.00 1018.23 1017.48 1016.77 1016.12 1015.54 1015.07 1014.68 1014.35 1014.06 1013.77 1013.45 1013.08 1012.65 1012.19 1011.74 1011.34 1011.05 1010.90 1010.91 1011.08 1011.40 1011.81 1012.27 1012.75 1013.21 1013.64 1014.04 1014.43 1014.81 1015.21
1023.40 1024.01 1024.72 1025.45 1026.11 1026.63 1026.94 1026.99 1026.78 1026.33 1025.69 1024.92 1024.08 1023.22 1022.36 1021.52 1020.71 1019.90 1019.09 1018.29 1017.50 1016.75 1016.05 1015.44 1014.92 1014.50 1014.16 1013.88 1013.61 1013.33 1013.01 1012.65 1012.27 1011.89 1011.55 1011.30 1011.16 1011.15 1011.28 1011.52 1011.84 1012.22 1012.61 1013.00 1013.37 1013.73 1014.09 1014.45 1014.83
1023.88 1024.57 1025.33 1026.08 1026.72 1027.18 1027.40 1027.35 1027.05 1026.51 1025.80 1025.00 1024.14 1023.28 1022.44 1021.63 1020.84 1020.06 1019.26 1018.46 1017.66 1016.88 1016.15 1015.49 1014.93 1014.47 1014.11 1013.81 1013.55 1013.30 1013.03 1012.75 1012.45 1012.15 1011.88 1011.68 1011.56 1011.54 1011.62 1011.79 1012.03 1012.31 1012.61 1012.92 1013.22 1013.53 1013.85 1014.18 1014.52
1024.40 1025.14 1025.91 1026.63 1027.21 1027.58 1027.69 1027.54 1027.14 1026.53 1025.77 1024.94 1024.09 1023.26 1022.47 1021.71 1020.97 1020.24 1019.49 1018.72 1017.94 1017.16 1016.42 1015.74 1015.15 1014.65 1014.25 1013.92 1013.66 1013.43 1013.20 1012.97 1012.75 1012.53 1012.33 1012.18 1012.08 1012.05 1012.09 1012.19 1012.33 1012.52 1012.72 1012.94 1013.17 1013.42 1013.69 1013.98 1014.28
1024.92 1025.66 1026.39 1027.04 1027.52 1027.77 1027.78 1027.52 1027.04 1026.38 1025.60 1024.77 1023.95 1023.16 1022.43 1021.73 1021.07 1020.41 1019.73 1019.03 1018.30 1017.57 1016.85 1016.18 1015.57 1015.06 1014.63 1014.28 1014.00 1013.76 1013.56 1013.37 1013.19 1013.03 1012.88 1012.76 1012.68 1012.63 1012.63 1012.66 1012.72 1012.80 1012.91 1013.04 1013.20 1013.39 1013.60 1013.85 1014.12
1025.38 1026.07 1026.72 1027.26 1027.62 1027.76 1027.66 1027.33 1026.79 1026.10 1025.32 1024.52 1023.74 1023.01 1022.34 1021.72 1021.14 1020.56 1019.97 1019.35 1018.70 1018.04 1017.38 1016.75 1016.17 1015.66 1015.22 1014.86 1014.56 1014.31 1014.10 1013.93 1013.77 1013.64 1013.52 1013.41 1013.33 1013.26 1013.21 1013.17 1013.15 1013.14 1013.15 1013.20 1013.28 1013.41 1013.58 1013.78 1014.01
Thickness
5841 5839 5834 5819 5794 5772 5770 5782 5791 5795 5797 5805 5807 5802 5794 5788 5782 5781 5799 5808 5806 5803 5800 5798 5795 5793 5790 5788 5786 5784 5781 5779 5777 5775 5773 5771 5770 5769 5768 5767 5765 5765 5764 5763 5763 5764 5764 5764 5764
5843 5838 5826 5804 5776 5755 5767 5787 5791 5798 5805 5809 5808 5803 5795 5791 5797 5797 5801 5806 5806 5803 5800 5798 5796 5793 5791 5788 5786 5784 5782 5780 5778 5776 5774 5772 5771 5769 5768 5767 5766 5765 5764 5763 5763 5763 5763 5762 5762
5844 5838 5813 5791 5773 5764 5776 5792 5796 5805 5812 5810 5802 5802 5797 5793 5799 5800 5805 5807 5805 5802 5800 5798 5795 5793 5791 5789 5787 5785 5783 5781 5779 5777 5775 5773 5771 5770 5768 5767 5766 5765 5763 5763 5762 5762 5761 5761 5761
5839 5823 5805 5784 5776 5783 5790 5799 5804 5805 5809 5810 5803 5795 5800 5807 5806 5807 5808 5807 5803 5801 5799 5797 5795 5792 5790 5788 5787 5785 5783 5781 5779 5778 5776 5774 5772 5771 5769 5767 5766 5765 5763 5762 5761 5761 5760 5760 5759
5833 5810 5787 5773 5778 5792 5801 5807 5809 5804 5803 5805 5801 5791 5793 5805 5812 5810 5808 5805 5802 5800 5798 5796 5794 5792 5790 5788 5786 5785 5783 5781 5780 5778 5776 5775 5773 5771 5770 5768 5766 5765 5763 5762 5761 5760 5759 5759 5758
5815 5800 5772 5764 5775 5792 5804 5811 5810 5804 5803 5804 5800 5791 5791 5804 5807 5806 5806 5804 5802 5799 5797 5795 5793 5791 5790 5788 5786 5784 5783 5781 5780 5778 5776 5775 5773 5772 5770 5769 5767 5765 5763 5762 5760 5759 5758 5758 5757
5807 5789 5772 5771 5774 5786 5801 5812 5807 5802 5800 5802 5802 5788 5790 5799 5805 5806 5804 5801 5799 5797 5795 5794 5792 5791 5789 5787 5786 5784 5782 5781 5779 5777 5776 5774 5773 5771 5770 5769 5767 5765 5764 5762 5760 5759 5758 5757 5756
5813 5791 5775 5772 5774 5782 5801 5810 5811 5806 5802 5810 5806 5789 5787 5799 5804 5803 5800 5797 5795 5793 5792 5791 5790 5789 5788 5786 5785 5783 5782 5780 5778 5777 5775 5774 5772 5771 5769 5768 5767 5765 5764 5762 5761 5759 5758 5757 5756
5815 5781 5767 5774 5777 5784 5798 5801 5807 5813 5807 5806 5806 5802 5804 5806 5802 5797 5792 5790 5789 5789 5789 5788 5787 5786 5785 5784 5783 5782 5780 5779 5777 5775 5774 5773 5771 5770 5768 5767 5765 5764 5763 5762 5761 5759 5758 5757 5756
5800 5772 5778 5787 5788 5788 5793 5794 5796 5798 5793 5793 5796 5801 5804 5799 5794 5789 5786 5784 5784 5784 5785 5785 5784 5783 5782 5781 5780 5779 5778 5777 5775 5774 5773 5771 5770 5768 5767 5765 5764 5763 5762 5761 5760 5759 5758 5757 5756
5797 5781 5788 5791 5794 5793 5790 5785 5784 5779 5771 5776 5782 5787 5790 5787 5783 5781 5780 5781 5782 5783 5783 5783 5781 5780 5778 5778 5777 5776 5776 5775 5774 5772 5771 5770 5768 5766 5765 5764 5763 5762 5761 5760 5758 5757 5756 5756 5755
5792 5790 5791 5790 5794 5789 5782 5778 5769 5762 5759 5773 5781 5781 5779 5775 5772 5771 5772 5774 5776 5777 5778 5780 5779 5777 5776 5775 5775 5774 5773 5772 5772 5771 5770 5768 5766 5765 5763 5762 5761 5760 5759 5758 5757 5756 5755 5755 5755
5787 5786 5789 5788 5786 5778 5772 5763 5758 5751 5758 5767 5771 5768 5764 5763 5763 5764 5766 5768 5770 5770 5772 5775 5776 5775 5774 5773 5772 5772 5771 5770 5770 5768 5767 5766 5765 5764 5762 5761 5759 5758 5757 5756 5755 5754 5754 5754 5754
5784 5779 5776 5775 5774 5767 5756 5747 5745 5738 5747 5752 5752 5749 5748 5749 5751 5754 5756 5757 5759 5762 5765 5769 5771 5772 5771 5771 5770 5771 5770 5769 5767 5766 5765 5764 5763 5762 5761 5759 5758 5757 5756 5754 5753 5752 5752 5752 5753
5784 5770 5762 5759 5760 5759 5752 5727 5720 5726 5733 5734 5733 5734 5735 5737 5740 5741 5744 5746 5749 5753 5757 5761 5765 5767 5767 5767 5767 5767 5767 5766 5765 5764 5763 5762 5761 5760 5759 5757 5757 5756 5754 5752 5751 5750 5750 5750 5750
5765 5748 5733 5739 5743 5744 5733 5699 5705 5715 5717 5715 5716 5718 5720 5723 5726 5729 5733 5736 5740 5744 5748 5752 5756 5759 5761 5762 5763 5764 5764 5763 5763 5762 5761 5760 5759 5758 5756 5755 5755 5754 5752 5750 5748 5748 5746 5746 5746
5733 5724 5719 5722 5726 5727 5712 5689 5693 5702 5703 5700 5701 5702 5705 5709 5713 5717 5721 5724 5728 5732 5736 5740 5745 5749 5753 5756 5758 5759 5759 5759 5759 5760 5759 5758 5757 5756 5755 5754 5753 5752 5750 5748 5746 5744 5744 5742 5741
5717 5714 5710 5705 5706 5705 5692 5680 5683 5688 5690 5687 5687 5689 5691 5695 5698 5704 5708 5713 5716 5720 5725 5729 5734 5739 5744 5748 5752 5754 5755 5755 5755 5756 5757 5756 5755 5753 5752 5752 5750 5748 5746 5744 5743 5741 5740 5739 5738
5717 5708 5700 5698 5699 5689 5677 5670 5670 5674 5676 5674 5673 5674 5677 5681 5686 5690 5695 5699 5703 5708 5712 5717 5722 5727 5733 5737 5741 5744 5747 5750 5752 5753 5754 5754 5753 5751 5749 5749 5747 5745 5743 5742 5740 5738 5735 5734 5733
5706 5695 5689 5687 5690 5679 5665 5660 5662 5663 5660 5660 5660 5660 5663 5668 5673 5677 5681 5684 5688 5693 5698 5703 5708 5714 5720 5726 5732 5737 5742 5746 5749 5750 5751 5752 5751 5750 5748 5746 5744 5742 5739 5737 5736 5734 5730 5729 5729
5693 5686 5683 5678 5673 5666 5657 5648 5646 5649 5651 5651 5651 5650 5651 5654 5656 5661 5665 5668 5673 5678 5683 5690 5695 5701 5708 5715 5721 5728 5734 5739 5741 5744 5747 5749 5749 5749 5747 5745 5742 5739 5736 5733 5732 5730 5727 5723 5722
5679 5685 5680 5674 5658 5643 5646 5631 5631 5633 5635 5638 5638 5639 5639 5641 5644 5647 5651 5655 5659 5664 5670 5677 5682 5689 5696 5704 5710 5716 5722 5727 5733 5737 5741 5743 5745 5745 5743 5742 5739 5736 5733 5731 5729 5727 5724 5721 5716
5679 5679 5672 5665 5649 5632 5627 5622 5617 5622 5621 5624 5626 5627 5628 5630 5633 5636 5639 5643 5647 5652 5658 5665 5672 5678 5686 5693 5700 5707 5713 5720 5725 5730 5733 5735 5738 5738 5738 5737 5735 5733 5731 5729 5726 5723 5720 5718 5715
5676 5671 5661 5646 5634 5616 5614 5612 5607 5607 5609 5614 5617 5618 5619 5621 5623 5627 5631 5634 5638 5642 5647 5654 5661 5668 5676 5683 5691 5698 5705 5712 5717 5721 5724 5727 5729 5730 5731 5731 5730 5728 5727 5724 5721 5719 5716 5714 5712
5663 5650 5635 5628 5612 5608 5613 5607 5601 5606 5608 5607 5608 5610 5612 5614 5615 5618 5622 5627 5630 5634 5639 5645 5652 5659 5667 5674 5682 5689 5696 5703 5708 5712 5715 5718 5720 5721 5723 5723 5723 5722 5721 5718 5716 5713 5710 5708 5706
5652 5641 5625 5617 5607 5603 5606 5600 5600 5608 5607 5607 5606 5607 5608 5609 5610 5612 5616 5621 5625 5629 5634 5639 5645 5651 5658 5666 5673 5680 5687 5693 5699 5703 5706 5709 5711 5713 5715 5716 5716 5715 5713 5711 5709 5706 5704 5703 5701
5650 5633 5631 5614 5608 5599 5598 5601 5605 5608 5605 5604 5604 5605 5606 5606 5608 5610 5614 5619 5623 5626 5630 5634 5639 5645 5651 5658 5665 5671 5677 5683 5688 5692 5696 5699 5702 5704 5705 5706 5706 5706 5705 5703 5700 5698 5697 5695 5694
5647 5635 5620 5611 5602 5595 5596 5594 5590 5596 5598 5600 5600 5601 5603 5605 5607 5609 5613 5617 5620 5624 5627 5632 5636 5640 5646 5652 5657 5663 5667 5673 5677 5681 5685 5688 5691 5693 5694 5695 5695 5695 5694 5693 5692 5690 5688 5688 5686
5640 5631 5616 5604 5601 5592 5586 5589 5601 5597 5597 5596 5598 5600 5602 5604 5606 5608 5612 5615 5619 5622 5626 5629 5632 5637 5641 5646 5650 5655 5659 5664 5667 5670 5673 5676 5679 5681 5682 5682 5683 5683 5683 5682 5682 5680 5680 5679 5678
5643 5631 5620 5608 5597 5592 5587 5589 5608 5603 5601 5600 5601 5603 5604 5605 5608 5609 5611 5614 5617 5620 5624 5627 5630 5633 5637 5641 5644 5648 5652 5655 5658 5661 5663 5666 5667 5669 5670 5671 5671 5671 5671 5671 5672 5672 5672 5671 5670